Weather History for Nairobi Jomo, Kenya

Change the Weather History Date:

Sunday, October 21, 2012

  Actual Average (HKNW) Record (HKNW)
Temperature  
Mean Temperature 68 °F -  
Max Temperature 79 °F 73 °F 80 °F (2005)
Min Temperature 57 °F 60 °F 59 °F (2004)
Cooling Degree Days 3    
Growing Degree Days 18 (Base 50)    
Moisture  
Dew Point 56 °F    
Average Humidity 68    
Maximum Humidity 94    
Minimum Humidity 36    
Precipitation  
Precipitation 0.00 in - - ()
Sea Level Pressure  
Sea Level Pressure 30.12 in    
Wind  
Wind Speed 13 mph ()    
Max Wind Speed 20 mph    
Max Gust Speed -    
Visibility 6.8 miles    
Events Rain    
Averages and records for this station are not official NWS values.
T = Trace of Precipitation, MM = Missing Value Source: Averaged Metar Reports

Daily Weather History Graph

Daily Weather History Graph

Search for Another Location

Airport:

Trip Planner

Search our weather history database for the weather conditions in past years. The results will help you decide how hot, cold, wet, or windy it might be!

Date:

Astronomy

Oct. 21, 2012 Rise Set
Actual Time 6:12 AM EAT 6:21 PM EAT
Civil Twilight 5:51 AM EAT 6:42 PM EAT
Nautical Twilight 5:27 AM EAT 7:06 PM EAT
Astronomical Twilight 5:02 AM EAT 7:31 PM EAT
Moon 11:47 AM EAT (10/21) No Moon Set
Length of Visible Light 12h 50m
Length of Day
12h 08m
Waxing Crescent, 41% of the Moon is Illuminated
Oct 21
Waxing Crescent
Oct 22
First Quarter
Oct 29
Full
Nov 7
Last Quarter
Nov 14
New

Hourly Weather History & Observations

Time (EAT) Temp. Dew Point Humidity Pressure Visibility Wind Dir Wind Speed Gust Speed Precip Events Conditions
12:00 AM 66.2 °F 60.8 °F 83% 30.12 in 6.2 mi East 16.1 mph - N/A   Scattered Clouds
12:30 AM 64.4 °F 60.8 °F 88% 30.12 in 6.2 mi East 11.5 mph - N/A   Scattered Clouds
1:00 AM 64.4 °F 60.8 °F 88% 30.09 in 6.2 mi East 16.1 mph - N/A   Scattered Clouds
1:30 AM 64.4 °F 60.8 °F 88% 30.09 in 6.2 mi East 10.4 mph - N/A   Scattered Clouds
2:00 AM 64.4 °F 62.6 °F 94% 30.09 in 6.2 mi East 15.0 mph - N/A   Scattered Clouds
2:30 AM 64.4 °F 60.8 °F 88% 30.09 in 6.2 mi East 19.6 mph - N/A   Scattered Clouds
3:00 AM 63 °F 60 °F 86%  in 12 mi East 18.4 mph - -   Mostly Cloudy
3:00 AM 62.6 °F 60.8 °F 94% 30.09 in 6.2 mi East 18.4 mph - N/A   Mostly Cloudy
3:30 AM 62.6 °F 59.0 °F 88% 30.09 in 6.2 mi East 16.1 mph - N/A   Mostly Cloudy
4:00 AM 62.6 °F 59.0 °F 88% 30.09 in 6.2 mi North 19.6 mph - N/A   Mostly Cloudy
4:30 AM 60.8 °F 59.0 °F 94% 30.12 in 6.2 mi East 15.0 mph - N/A   Mostly Cloudy
5:00 AM 64.4 °F 57.2 °F 77% 30.12 in 6.2 mi East 16.1 mph - N/A   Mostly Cloudy
5:30 AM 59.0 °F 55.4 °F 88% 30.15 in 6.2 mi East 11.5 mph - N/A   Mostly Cloudy
6:00 AM 64.4 °F 57.2 °F 77% 30.15 in 6.2 mi ENE 10.4 mph - N/A   Mostly Cloudy
6:30 AM 59.0 °F 57.2 °F 94% 30.18 in 6.2 mi ENE 13.8 mph - N/A   Mostly Cloudy
7:00 AM 59.0 °F 57.2 °F 94% 30.18 in 6.2 mi ENE 19.6 mph - N/A   Mostly Cloudy
7:30 AM 59.0 °F 55.4 °F 88% 30.21 in 6.2 mi ENE 11.5 mph - N/A   Mostly Cloudy
8:30 AM 60.8 °F 53.6 °F 77% 30.21 in 6.2 mi NE 15.0 mph - N/A   Mostly Cloudy
9:00 AM 63 °F 52 °F 58%  in 19 mi NE 13.8 mph - - Rain Light Rain
9:00 AM 62.6 °F 51.8 °F 68% 30.21 in 6.2 mi NE 13.8 mph - N/A Rain Light Rain
9:30 AM 60.8 °F 55.4 °F 82% 30.21 in 6.2 mi NE 12.7 mph - N/A Rain Light Rain
10:00 AM 64.4 °F 53.6 °F 68% 30.21 in 6.2 mi ENE 13.8 mph - N/A   Mostly Cloudy
11:30 AM 69.8 °F 55.4 °F 60% 30.18 in 6.2 mi NNE 10.4 mph - N/A   Mostly Cloudy
12:00 PM 73.4 °F 55.4 °F 53% 30.15 in 6.2 mi NNE 15.0 mph - N/A   Mostly Cloudy
12:30 PM 73.4 °F 55.4 °F 53% 30.15 in 6.2 mi NE 16.1 mph - N/A   Mostly Cloudy
1:00 PM 73.4 °F 55.4 °F 53% 30.12 in 6.2 mi NE 19.6 mph - N/A   Mostly Cloudy
2:30 PM 75.2 °F 55.4 °F 50% 30.06 in 6.2 mi ENE 12.7 mph - N/A   Mostly Cloudy
3:00 PM 76 °F 54 °F 36%  in 25 mi NE 12.7 mph - -   Mostly Cloudy
3:30 PM 77.0 °F 51.8 °F 41% 30.06 in 6.2 mi ENE 11.5 mph - N/A   Mostly Cloudy
4:00 PM 78.8 °F 53.6 °F 42% 30.06 in 6.2 mi East 11.5 mph - N/A   Mostly Cloudy
4:30 PM 77.0 °F 53.6 °F 44% 30.06 in 6.2 mi NE 15.0 mph - N/A   Mostly Cloudy
5:00 PM 77.0 °F 53.6 °F 44% 30.06 in 6.2 mi East 16.1 mph - N/A   Mostly Cloudy
5:30 PM 77.0 °F 53.6 °F 44% 30.06 in 6.2 mi ENE 18.4 mph - N/A   Mostly Cloudy
6:00 PM 75.2 °F 53.6 °F 47% 30.06 in 6.2 mi ENE 17.3 mph - N/A   Scattered Clouds
6:30 PM 73.4 °F 55.4 °F 53% 30.09 in 6.2 mi ENE 12.7 mph - N/A   Mostly Cloudy
7:00 PM 71.6 °F 55.4 °F 57% 30.09 in 6.2 mi ENE 8.1 mph - N/A   Scattered Clouds
7:30 PM 69.8 °F 55.4 °F 60% 30.09 in 6.2 mi ENE 8.1 mph - N/A   Partly Cloudy
8:00 PM 69.8 °F 55.4 °F 60% 30.09 in 6.2 mi ENE 9.2 mph - N/A   Mostly Cloudy
8:30 PM 69.8 °F 55.4 °F 60% 30.12 in 6.2 mi ENE 10.4 mph - N/A   Mostly Cloudy
9:00 PM 71 °F 54 °F 46%  in 12 mi ENE 15.0 mph - -   Mostly Cloudy
9:00 PM 71.6 °F 55.4 °F 57% 30.12 in 6.2 mi ENE 15.0 mph - N/A   Mostly Cloudy
9:30 PM 69.8 °F 55.4 °F 60% 30.12 in 6.2 mi East 17.3 mph - N/A   Mostly Cloudy
10:30 PM 66.2 °F 55.4 °F 68% 30.15 in 6.2 mi East 12.7 mph - N/A   Partly Cloudy
11:00 PM 66.2 °F 53.6 °F 64% 30.15 in 6.2 mi ENE 13.8 mph - N/A   Partly Cloudy